Location: Burera
(21.3780°N, 81.9534°E)
Time: 12:29:22
(UTC+00:00)

Meteor 2-10 Rocket - Pass Details

Date: 13 August 2020
Orbit: 734 x 884 km, 81.2° (Epoch: 21 September)

Event Time Altitude Azimuth Distance (km) Brightness Sun altitude
Exits shadow 23:29:09 - 211° (SSW) 2,665 5.8 -10.0°
Reaches altitude 10° 23:30:16 10° 217° (SW) 2,267 5.4 -9.7°
Maximum altitude 23:34:48 32° 280° (W) 1,285 4.2 -8.7°
Drops below altitude 10° 23:39:30 10° 343° (NNW) 2,349 6.1 -7.7°
Sets 23:42:10 0° 353° (N) 3,306 6.9 -7.1°
